[[[{"header":{"parameterUnit":"kt","parameterCategory":2,"dx":1,"dy":1,"la1":30.253999710083008,"la2":30.299108505249023,"lo1":-89.0895004272461,"lo2":-89.04439544677734,"nx":28,"ny":28,"refTime":"2022-09-28T21:00:00:Z","depth":"0","parameterNumber":2,"parameterNumberName":"U-component_of_CURRENTS"},"data":[0.4845,0.4789,0.4795,0.4671,0.4674,0.456,0.4565,0.4602,0.4752,0.4949,0.5135,0.5409,0.5902,0.6136,0.6004,0.5805,0.5325,0.5078,0.5022,0.5618,0.5662,0.5704,0.5594,0.5285,0.5285,0.4066,0.4057,0.4051,0.4923,0.4934,0.4958,0.4959,0.492,0.5023,0.5113,0.5091,0.5182,0.5487,0.5682,0.5994,0.6082,0.6227,0.6278,0.6053,0.5727,0.5885,0.5509,0.5363,0.6089,0.5984,0.5753,0.5753,0.5753,0.5753,0.5753,0.5753,0.5078,0.5066,0.5117,0.5146,0.5194,0.5233,0.5232,0.5409,0.5567,0.5772,0.6111,0.6292,0.6535,0.6723,0.6678,0.6548,0.6482,0.638,0.6359,0.6142,0.5838,0.6532,0.6525,0.6528,0.653,0.6533,0.6534,0,0.5168,0.5217,0.5256,0.5301,0.5358,0.5424,0.5549,0.5635,0.5907,0.6079,0.6337,0.6517,0.6804,0.6846,0.6965,0.6984,0.6697,0.6923,0.6855,0.6383,0.6029,0.5804,0.6591,0.6647,0.665,0.6653,0.6655,0.6656,0.5279,0.5297,0.5408,0.5433,0.5492,0.5587,0.5654,0.5878,0.5986,0.6339,0.6404,0.6686,0.6843,0.7092,0.7145,0.7217,0.7031,0.7006,0.6897,0.6747,0.6688,0.644,0.6247,0.6694,0.669,0.6686,0.6682,0,0.5337,0.5422,0.5465,0.5593,0.5635,0.5675,0.5864,0.5944,0.6158,0.6328,0.6397,0.6678,0.6874,0.6988,0.7184,0.7143,0.7061,0.7234,0.6967,0.6926,0.6748,0.6699,0.6487,0.6264,0.72,0.7199,0.7198,0,0.5452,0.548,0.5598,0.5618,0.5679,0.5802,0.591,0.6031,0.6231,0.6344,0.6508,0.6644,0.6806,0.6935,0.6989,0.7076,0.7156,0.707,0.7062,0.6862,0.6834,0.6755,0.6696,0.7196,0.7195,0.7194,0.7194,0,0.5493,0.5594,0.5641,0.5676,0.5805,0.5863,0.5944,0.6109,0.6204,0.6405,0.648,0.6643,0.6747,0.6838,0.6938,0.6893,0.7121,0.7068,0.7022,0.7014,0.6854,0.6825,0.6847,0.7193,0.7192,0.7192,0.7192,0,0.5581,0.5629,0.5691,0.579,0.5814,0.587,0.6011,0.6097,0.6261,0.6327,0.6443,0.6504,0.6672,0.663,0.6825,0.6759,0.6801,0.6855,0.6859,0.6786,0.6707,0.6578,0.6667,0.6564,0.6849,0.6846,0.6844,0,0.5595,0.5655,0.5722,0.5784,0.5815,0.5905,0.5986,0.6073,0.6152,0.6243,0.6336,0.6438,0.6424,0.6482,0.6562,0.6676,0.6738,0.665,0.6746,0.6749,0.6654,0.6783,0.6566,0.6638,0.6812,0.6816,0.6818,0,0.5589,0.569,0.5694,0.5718,0.5817,0.5846,0.5946,0.6029,0.609,0.6134,0.622,0.6349,0.6368,0.6422,0.647,0.6551,0.6679,0.6526,0.6529,0.6547,0.6827,0.6746,0.6759,0.668,0.6684,0.6688,0.6793,0,0.5639,0.5667,0.5693,0.5743,0.5789,0.5836,0.5894,0.5941,0.5958,0.599,0.6102,0.6174,0.6256,0.6289,0.6315,0.6462,0.6426,0.6416,0.637,0.6465,0.6493,0.6513,0.626,0.6259,0.6258,0.6257,0,0,0.5607,0.5636,0.5665,0.57,0.5735,0.5766,0.5803,0.5846,0.5899,0.5934,0.5907,0.6049,0.6096,0.6235,0.6277,0.6286,0.6302,0.6253,0.6409,0.6426,0.6441,0.6473,0.6494,0.6256,0.6255,0.6255,0.6255,0,0.5615,0.5628,0.5647,0.5682,0.5728,0.5755,0.5766,0.5804,0.583,0.5884,0.5916,0.5993,0.604,0.6119,0.6158,0.626,0.6243,0.6258,0.6312,0.6397,0.6415,0.6431,0.6466,0.6485,0.6252,0.6252,0.6252,0,0.5595,0.5617,0.5624,0.5661,0.5688,0.5725,0.5714,0.5759,0.5797,0.5797,0.5852,0.5893,0.595,0.6031,0.6065,0.6036,0.6184,0.6122,0.6129,0.6148,0.6234,0.6255,0.6273,0.6037,0.6036,0.6035,0,0,0.5595,0.5615,0.5641,0.5661,0.5678,0.5702,0.5723,0.5737,0.5776,0.5792,0.5811,0.5854,0.5921,0.5945,0.5997,0.6058,0.6081,0.6095,0.6105,0.6114,0.6137,0.6225,0.6245,0.6032,0.6032,0.6032,0,0,0.5599,0.5624,0.5617,0.5637,0.5671,0.5708,0.5734,0.5735,0.5777,0.5781,0.5794,0.5805,0.5885,0.5891,0.585,0.5977,0.5937,0.5946,0.5966,0.5979,0.5989,0.6005,0.5824,0,0,0,0,0,0.5606,0.5621,0.5614,0.5619,0.5655,0.5705,0.5713,0.573,0.5716,0.5739,0.5773,0.5757,0.5884,0.5848,0.5858,0.5901,0.5993,0.6,0.6007,0.6049,0.6062,0.6074,0,0,0,0,0,0,0.5608,0.5613,0.5614,0.5646,0.5655,0.5704,0.5687,0.5692,0.5715,0.5715,0.5753,0.5758,0.5772,0.5843,0.5851,0.5893,0.5821,0.5996,0.6002,0.6007,0.6053,0.6064,0.6074,0,0,0,0,0,0.561,0.5614,0.566,0.5647,0.5655,0.5684,0.5686,0.5691,0.5708,0.5739,0.5745,0.572,0.5772,0.5781,0.5848,0.5889,0.5815,0.5819,0.6,0.6004,0.6009,0.6059,0,0,0,0,0,0,0.5612,0.5622,0.5663,0.5667,0.5639,0.5683,0.5687,0.5689,0.5731,0.5737,0.5708,0.5707,0.5772,0.5779,0.5786,0.5889,0.581,0.5814,0.5816,0.6003,0.6007,0.601,0,0,0,0,0,0,0.562,0.5625,0.5665,0.5653,0.5656,0.5682,0.5686,0.5722,0.5731,0.5696,0.5697,0.5707,0.5764,0.5778,0.5783,0.584,0.5807,0.581,0.5812,0.5813,0.6006,0.6009,0,0,0,0,0,0,0.5623,0.5627,0.5652,0.5654,0.5657,0.5704,0.5715,0.575,0.5719,0.5694,0.5717,0.5716,0.5763,0.5769,0.5781,0.5835,0.5839,0.5807,0.5809,0.581,0.5811,0,0,0,0,0,0,0,0.5625,0.5587,0.5639,0.5655,0.5657,0.5706,0.5707,0.5708,0.5719,0.5718,0.5717,0.5716,0.5788,0.5792,0.5795,0.5832,0,0,0.5806,0.5808,0,0,0,0,0,0,0,0,0.5586,0.5586,0.5639,0.564,0.5641,0.5706,0.5707,0.5708,0.5718,0.5718,0.5717,0.5717,0.5789,0.5792,0.5795,0,0,0,0,0,0,0,0,0,0,0,0,0,0,0,0.5639,0.564,0,0.5706,0.5707,0.5708,0.5718,0.5718,0.5717,0.5717,0.579,0.5792,0.5795,0,0,0,0,0,0,0,0,0,0,0,0,0,0,0,0,0,0,0,0,0,0,0,0,0,0,0,0,0,0,0,0,0,0,0,0,0,0,0,0,0,0,0,0,0,0,0,0,0,0,0,0,0,0,0,0,0,0,0,0,0,0,0,0,0,0,0,0,0]}],[{"header":{"parameterUnit":"kt","parameterCategory":2,"dx":1,"dy":1,"la1":30.253999710083008,"la2":30.299108505249023,"lo1":-89.0895004272461,"lo2":-89.04439544677734,"nx":28,"ny":28,"refTime":"2022-09-28T21:00:00:Z","depth":"0","parameterNumber":3,"parameterNumberName":"V-component_of_CURRENTS"},"data":[0.1227,0.1391,0.1464,0.1767,0.191,0.2171,0.2342,0.26,0.2805,0.3012,0.303,0.2974,0.2233,-0.006,-0.1695,-0.2083,-0.2585,-0.2711,-0.2994,-0.2446,-0.2397,-0.2351,-0.2399,-0.2836,-0.2838,-0.3706,-0.3715,-0.3722,0.1161,0.1252,0.1416,0.1615,0.1796,0.1861,0.2141,0.2311,0.259,0.2779,0.2878,0.2529,0.1663,0.074,-0.0554,-0.128,-0.1558,-0.1709,-0.1939,-0.2017,-0.1172,-0.1171,-0.1354,-0.1354,-0.1354,-0.1353,-0.1353,-0.1352,0.1044,0.1127,0.1256,0.1427,0.1582,0.1786,0.1942,0.2123,0.2334,0.2517,0.2454,0.245,0.1747,0.0822,0.0281,-0.0692,-0.0743,-0.1001,-0.1222,-0.1349,-0.1497,-0.0526,-0.063,-0.063,-0.063,-0.0631,-0.0631,0,0.0945,0.0989,0.1079,0.1259,0.1392,0.1541,0.1698,0.1825,0.1901,0.1997,0.2102,0.2047,0.1543,0.1083,0.0393,0.0021,-0.0695,-0.0475,-0.0831,-0.1111,-0.1264,-0.1453,-0.0503,-0.0536,-0.0536,-0.0536,-0.0536,-0.0536,0.0821,0.0893,0.1017,0.1105,0.1148,0.1279,0.1384,0.1423,0.1537,0.1584,0.1663,0.1483,0.1415,0.0871,0.035,-0.0139,-0.0498,-0.0457,-0.0544,-0.0855,-0.114,-0.1296,-0.1406,-0.0535,-0.0535,-0.0535,-0.0535,0,0.076,0.0781,0.0893,0.0965,0.1005,0.1098,0.1214,0.1303,0.1296,0.1409,0.1403,0.1254,0.1039,0.0677,0.0309,0.003,-0.0471,-0.0398,-0.0311,-0.0373,-0.0865,-0.1068,-0.1422,-0.157,-0.0612,-0.0613,-0.0614,0,0.0654,0.0727,0.0765,0.0818,0.0945,0.0924,0.1053,0.1051,0.1077,0.1167,0.0976,0.1,0.065,0.0477,0.0184,-0.0111,-0.0091,-0.0399,-0.0475,-0.0435,-0.0436,-0.079,-0.1004,-0.0424,-0.0423,-0.0423,-0.0422,0,0.0545,0.0609,0.07,0.0715,0.0751,0.0803,0.0825,0.0823,0.0875,0.083,0.0841,0.0683,0.0618,0.0383,0.0095,0.0051,-0.0157,-0.0268,-0.0452,-0.0457,-0.0497,-0.0504,-0.077,-0.0421,-0.0421,-0.042,-0.042,0,0.0434,0.0474,0.057,0.0623,0.0638,0.0672,0.0726,0.0741,0.0705,0.0673,0.0601,0.0478,0.0378,0.0242,0.0015,0.0044,-0.0135,-0.0279,-0.0288,-0.0364,-0.0485,-0.0524,-0.0463,-0.0797,-0.0438,-0.0437,-0.0437,0,0.0336,0.0413,0.0393,0.0472,0.0511,0.0464,0.0494,0.0479,0.0442,0.0434,0.0298,0.0245,0.0108,0.0064,-0.0014,-0.0188,-0.0248,-0.021,-0.0454,-0.046,-0.0473,-0.0407,-0.0368,-0.0456,-0.0431,-0.0431,-0.0432,0,0.0253,0.0263,0.0275,0.0305,0.028,0.029,0.0309,0.0307,0.0338,0.0236,0.0253,0.0101,0.0024,-0.0044,-0.0165,-0.0227,-0.0246,-0.0329,-0.0337,-0.0358,-0.0378,-0.0398,-0.0405,-0.0324,-0.0324,-0.0324,-0.0427,0,0.0169,0.0192,0.021,0.0214,0.0205,0.0224,0.0177,0.0171,0.0125,0.0078,0.0022,-0.0125,-0.0216,-0.0269,-0.0355,-0.0371,-0.0422,-0.0495,-0.0554,-0.0487,-0.0545,-0.0548,-0.0559,-0.0563,-0.0565,-0.0567,0,0,0.0092,0.0123,0.0071,0.0091,0.0093,0.0012,0.0046,0.001,-0.0068,-0.0074,-0.0134,-0.0298,-0.0408,-0.0462,-0.0451,-0.052,-0.0571,-0.0525,-0.0521,-0.0515,-0.051,-0.056,-0.056,-0.0572,-0.0573,-0.0574,-0.0575,0,0.0063,0.0041,0.0069,0.0048,0.0014,-0.0025,-0.0018,-0.0082,-0.0107,-0.0149,-0.0252,-0.0326,-0.0459,-0.0532,-0.0591,-0.0553,-0.0659,-0.059,-0.0474,-0.0541,-0.0532,-0.0524,-0.0571,-0.0569,-0.0581,-0.058,-0.058,0,0.0004,-0.0015,-0.0012,-0.0042,-0.008,-0.0078,-0.0154,-0.0169,-0.0165,-0.0317,-0.0345,-0.0447,-0.0573,-0.0625,-0.0658,-0.069,-0.0732,-0.0732,-0.0721,-0.0696,-0.077,-0.0759,-0.0749,-0.0878,-0.0879,-0.0879,0,0,-0.0019,-0.001,-0.0064,-0.0055,-0.0067,-0.0138,-0.016,-0.0198,-0.0267,-0.0298,-0.039,-0.0487,-0.0571,-0.0618,-0.0706,-0.0753,-0.0811,-0.0762,-0.0748,-0.0736,-0.0705,-0.0774,-0.0763,-0.088,-0.088,-0.088,0,0,-0.0039,-0.0079,-0.0105,-0.0095,-0.0134,-0.0212,-0.0218,-0.0259,-0.0329,-0.0338,-0.0467,-0.0498,-0.0559,-0.0639,-0.0639,-0.0722,-0.0788,-0.0791,-0.0655,-0.064,-0.0627,-0.0565,-0.0746,0,0,0,0,0,-0.0093,-0.0069,-0.0091,-0.0097,-0.0162,-0.0195,-0.0209,-0.0277,-0.0305,-0.0305,-0.0395,-0.0473,-0.0661,-0.0664,-0.0693,-0.068,-0.0895,-0.0892,-0.089,-0.0729,-0.0711,-0.0696,0,0,0,0,0,0,-0.0096,-0.0102,-0.0092,-0.0162,-0.0178,-0.0197,-0.0262,-0.0281,-0.0306,-0.0315,-0.0452,-0.0478,-0.057,-0.0657,-0.0682,-0.0666,-0.0738,-0.0894,-0.0892,-0.089,-0.0723,-0.0708,-0.0695,0,0,0,0,0,-0.0099,-0.0104,-0.0179,-0.0165,-0.0179,-0.0263,-0.0263,-0.0279,-0.0304,-0.0438,-0.0463,-0.0349,-0.0567,-0.0596,-0.0672,-0.0652,-0.0721,-0.073,-0.0893,-0.0891,-0.0889,-0.0715,0,0,0,0,0,0,-0.0101,-0.0135,-0.0185,-0.0193,-0.017,-0.0264,-0.0277,-0.0277,-0.0428,-0.045,-0.0343,-0.0349,-0.0566,-0.0588,-0.061,-0.064,-0.0708,-0.0717,-0.0722,-0.0891,-0.089,-0.0889,0,0,0,0,0,0,-0.0133,-0.0141,-0.0189,-0.019,-0.02,-0.0264,-0.0276,-0.0364,-0.0432,-0.0327,-0.0335,-0.0344,-0.0552,-0.0583,-0.06,-0.0733,-0.0698,-0.0706,-0.0712,-0.0716,-0.089,-0.0889,0,0,0,0,0,0,-0.0139,-0.0146,-0.0189,-0.0196,-0.0205,-0.0308,-0.0348,-0.0424,-0.0385,-0.0322,-0.0387,-0.0389,-0.0546,-0.0564,-0.0592,-0.0718,-0.0729,-0.0698,-0.0704,-0.0708,-0.0711,0,0,0,0,0,0,0,-0.0143,-0.0068,-0.0129,-0.0201,-0.0209,-0.027,-0.0273,-0.0276,-0.0385,-0.0386,-0.0387,-0.0388,-0.0649,-0.0658,-0.0668,-0.0705,0,0,-0.0697,-0.0701,0,0,0,0,0,0,0,0,-0.0067,-0.0068,-0.013,-0.0131,-0.0132,-0.0271,-0.0273,-0.0275,-0.0385,-0.0386,-0.0387,-0.0388,-0.0651,-0.0659,-0.0667,0,0,0,0,0,0,0,0,0,0,0,0,0,0,0,-0.013,-0.0131,0,-0.0271,-0.0273,-0.0275,-0.0385,-0.0386,-0.0387,-0.0387,-0.0654,-0.066,-0.0666,0,0,0,0,0,0,0,0,0,0,0,0,0,0,0,0,0,0,0,0,0,0,0,0,0,0,0,0,0,0,0,0,0,0,0,0,0,0,0,0,0,0,0,0,0,0,0,0,0,0,0,0,0,0,0,0,0,0,0,0,0,0,0,0,0,0,0,0,0]}]],[[{"header":{"parameterUnit":"kt","parameterCategory":2,"dx":1,"dy":1,"la1":30.253999710083008,"la2":30.299108505249023,"lo1":-89.0895004272461,"lo2":-89.04439544677734,"nx":28,"ny":28,"refTime":"2022-09-28T21:00:00:Z","depth":"2","parameterNumber":2,"parameterNumberName":"U-component_of_CURRENTS"},"data":[0.4683,0.4631,0.4635,0.4516,0.4529,0.4406,0.4402,0.4361,0.4402,0.4348,0.4304,0.4624,0.4766,0.4055,0.3987,0.3662,0.3927,0.3531,0.5041,0.485,0.4919,0.5114,0.4903,0,0,0,0,0,0.4754,0.477,0.4799,0.4807,0.4766,0.4877,0.4951,0.4892,0.4947,0.513,0.5261,0.4902,0.4821,0.4873,0.4585,0.4627,0.4511,0.4424,0.4183,0.4273,0.4351,0.4142,0.3484,0.3477,0.3471,0.3465,0,0,0.4897,0.4891,0.4947,0.4983,0.5036,0.5069,0.5066,0.5223,0.5361,0.5505,0.5821,0.584,0.591,0.58,0.5649,0.5534,0.5982,0.5675,0.5695,0.5727,0.5599,0.5476,0.5323,0.5329,0.5335,0.5341,0.5345,0,0.4974,0.5028,0.5071,0.5124,0.5188,0.5254,0.5381,0.5457,0.5719,0.5877,0.6105,0.6255,0.6471,0.631,0.6392,0.635,0.6299,0.6163,0.6927,0.5733,0.5601,0.5578,0.5602,0.55,0.5508,0.5514,0.5518,0.5522,0.5072,0.5094,0.5213,0.5242,0.5306,0.5408,0.5476,0.5696,0.5799,0.6135,0.6191,0.6455,0.6581,0.6795,0.6796,0.6835,0.6947,0.6343,0.6195,0.6776,0.6756,0.6743,0.673,0.561,0.5598,0.5589,0.5582,0,0.5122,0.5207,0.5257,0.5387,0.5431,0.5481,0.5669,0.575,0.5961,0.6123,0.6193,0.6455,0.6632,0.6735,0.6907,0.6861,0.6938,0.6925,0.6343,0.6269,0.6747,0.6732,0.6872,0.6871,0.6869,0.6868,0.6867,0,0.5224,0.5259,0.5377,0.54,0.5468,0.5588,0.5703,0.5819,0.6013,0.6124,0.6286,0.6412,0.6568,0.6685,0.6728,0.6797,0.6878,0.6778,0.6772,0.6298,0.6248,0.6754,0.6736,0.6907,0.6906,0.6905,0.6905,0,0.5258,0.5359,0.5411,0.5446,0.5572,0.5633,0.5715,0.5876,0.597,0.6169,0.6245,0.6403,0.6506,0.659,0.668,0.6644,0.6844,0.6799,0.6741,0.6733,0.6288,0.6235,0.6904,0.6904,0.6904,0.6904,0.6903,0,0.5335,0.5383,0.5449,0.5548,0.5572,0.5631,0.577,0.5856,0.6014,0.6084,0.62,0.6264,0.6424,0.6389,0.6568,0.6519,0.6557,0.6604,0.6608,0.6517,0.6451,0.6012,0.6033,0.6601,0.6599,0.6596,0.6595,0,0.5343,0.5404,0.5468,0.5534,0.5566,0.5652,0.5733,0.5819,0.5902,0.5993,0.6083,0.6189,0.618,0.6249,0.6327,0.643,0.6491,0.6414,0.6499,0.6501,0.6399,0.6531,0.5996,0.6022,0.6567,0.657,0.6572,0,0.5331,0.5428,0.5436,0.5462,0.556,0.5588,0.5688,0.5769,0.5834,0.5887,0.5973,0.61,0.6126,0.6177,0.6231,0.6312,0.6439,0.6302,0.6304,0.6309,0.6585,0.6501,0.6511,0.6459,0.6463,0.6466,0.655,0,0.5367,0.5401,0.5429,0.548,0.5526,0.5575,0.5633,0.5682,0.5709,0.5742,0.5859,0.5925,0.6007,0.605,0.6074,0.6223,0.6195,0.6187,0.6138,0.6242,0.6261,0.6279,0.605,0.6048,0.6047,0.6046,0,0,0.5334,0.5364,0.5393,0.543,0.5466,0.5498,0.5537,0.558,0.5636,0.5673,0.5657,0.5796,0.584,0.5978,0.6029,0.604,0.6061,0.6023,0.6187,0.6203,0.6217,0.6241,0.6259,0.6043,0.6043,0.6042,0.6042,0,0.5332,0.5352,0.5375,0.5409,0.5459,0.5481,0.5497,0.5534,0.5566,0.5625,0.5654,0.5732,0.5789,0.5861,0.59,0.6012,0.5997,0.603,0.6093,0.6173,0.619,0.6206,0.6233,0.625,0.6039,0.6039,0.6039,0,0.5308,0.533,0.5341,0.5379,0.5405,0.5441,0.5432,0.5482,0.5522,0.5518,0.5582,0.5622,0.5676,0.5764,0.5804,0.5779,0.5935,0.5879,0.5887,0.5889,0.5968,0.5989,0.6007,0.577,0.5769,0.5769,0,0,0.5304,0.5328,0.5351,0.5376,0.5394,0.5417,0.5439,0.5457,0.5495,0.5514,0.5535,0.5582,0.5646,0.5679,0.5724,0.5795,0.5805,0.5846,0.5859,0.5869,0.5876,0.5958,0.5978,0.5765,0.5765,0.5765,0,0,0.5303,0.5329,0.5326,0.5351,0.5384,0.5412,0.5443,0.5447,0.5492,0.5503,0.5513,0.5524,0.561,0.5617,0.557,0.5717,0.5666,0.5676,0.5709,0.5725,0.5737,0.5734,0.5542,0,0,0,0,0,0.5304,0.5323,0.5321,0.5327,0.5362,0.5406,0.5414,0.5436,0.5431,0.5457,0.5492,0.5478,0.5609,0.5567,0.5575,0.5634,0.572,0.5728,0.5735,0.5795,0.5812,0.5826,0,0,0,0,0,0,0.5307,0.5313,0.5321,0.5345,0.5354,0.5405,0.5392,0.5398,0.543,0.5432,0.5472,0.5479,0.5488,0.5562,0.5569,0.5627,0.554,0.5723,0.573,0.5736,0.5801,0.5814,0.5826,0,0,0,0,0,0.5309,0.5314,0.5361,0.5346,0.5353,0.5388,0.5392,0.5397,0.5423,0.545,0.5457,0.5443,0.5487,0.5496,0.5566,0.5624,0.5535,0.5537,0.5727,0.5733,0.5737,0.5807,0,0,0,0,0,0,0.5311,0.5317,0.5363,0.5367,0.5346,0.5387,0.5392,0.5396,0.544,0.5447,0.542,0.5421,0.5486,0.5494,0.55,0.5625,0.553,0.5533,0.5535,0.5731,0.5736,0.5739,0,0,0,0,0,0,0.5315,0.5319,0.5365,0.5364,0.5368,0.5386,0.5391,0.542,0.544,0.5407,0.5409,0.542,0.5484,0.5492,0.5497,0.5542,0.5527,0.553,0.5532,0.5533,0.5735,0.5738,0,0,0,0,0,0,0.5318,0.5322,0.5363,0.5366,0.5369,0.5412,0.5413,0.545,0.543,0.5405,0.543,0.5431,0.5483,0.5488,0.5495,0.5537,0.554,0.5527,0.5529,0.553,0.5531,0,0,0,0,0,0,0,0.532,0.5283,0.5344,0.5367,0.537,0.5404,0.5405,0.5405,0.543,0.543,0.543,0.5431,0.5511,0.5514,0.5517,0.5533,0,0,0.5527,0.5528,0,0,0,0,0,0,0,0,0.5282,0.5283,0.5344,0.5345,0.5346,0.5404,0.5405,0.5405,0.543,0.543,0.543,0.5431,0.5512,0.5514,0.5517,0,0,0,0,0,0,0,0,0,0,0,0,0,0,0,0.5344,0.5345,0,0.5404,0.5405,0.5405,0.543,0.543,0.543,0.543,0.5513,0.5515,0.5517,0,0,0,0,0,0,0,0,0,0,0,0,0,0,0,0,0,0,0,0,0,0,0,0,0,0,0,0,0,0,0,0,0,0,0,0,0,0,0,0,0,0,0,0,0,0,0,0,0,0,0,0,0,0,0,0,0,0,0,0,0,0,0,0,0,0,0,0,0]}],[{"header":{"parameterUnit":"kt","parameterCategory":2,"dx":1,"dy":1,"la1":30.253999710083008,"la2":30.299108505249023,"lo1":-89.0895004272461,"lo2":-89.04439544677734,"nx":28,"ny":28,"refTime":"2022-09-28T21:00:00:Z","depth":"2","parameterNumber":3,"parameterNumberName":"V-component_of_CURRENTS"},"data":[0.1372,0.1526,0.1595,0.1884,0.2022,0.2269,0.2433,0.2643,0.2768,0.2862,0.2793,0.2674,0.1917,0.1249,0.0539,0.0008,-0.0112,-0.0103,0.0003,0.0175,0.0184,-0.0313,-0.0236,0,0,0,0,0,0.1313,0.1398,0.1554,0.1744,0.1919,0.1982,0.2252,0.2398,0.2642,0.2734,0.2789,0.2276,0.1743,0.1103,0.0192,-0.0338,-0.0383,-0.0525,-0.0458,-0.0452,-0.0448,-0.0409,-0.0497,-0.0499,-0.0501,-0.0503,0,0,0.1206,0.1284,0.1406,0.1568,0.1719,0.1914,0.2064,0.2229,0.2421,0.2557,0.2492,0.2385,0.186,0.1002,0.0429,-0.0199,-0.0178,-0.0413,-0.0409,-0.0406,-0.0366,-0.0328,-0.0442,-0.0442,-0.0443,-0.0443,-0.0444,0,0.1116,0.1157,0.1243,0.1414,0.1541,0.1686,0.1836,0.1957,0.203,0.2111,0.2194,0.2125,0.1626,0.1161,0.0488,0.0157,-0.0194,-0.0291,-0.0283,-0.0254,-0.0211,-0.0275,-0.0271,-0.0311,-0.0311,-0.0311,-0.0311,-0.0311,0.1001,0.1069,0.1188,0.1272,0.1314,0.1438,0.1539,0.1579,0.1688,0.1725,0.1798,0.161,0.1528,0.099,0.0491,0.0013,-0.0075,-0.0273,-0.0339,-0.0312,-0.038,-0.0373,-0.0367,-0.0311,-0.0311,-0.0311,-0.0311,0,0.0946,0.0968,0.1074,0.1144,0.1183,0.127,0.1384,0.1468,0.146,0.1564,0.1556,0.1408,0.1188,0.084,0.0482,0.0214,-0.0086,-0.0206,-0.0102,-0.0164,-0.036,-0.0355,-0.0427,-0.0429,-0.0431,-0.0432,-0.0433,0,0.0851,0.0919,0.0958,0.1007,0.1128,0.111,0.1232,0.1231,0.1255,0.1339,0.1156,0.1175,0.0839,0.0666,0.0387,0.0093,0.0115,-0.018,-0.0257,-0.0198,-0.0198,-0.0244,-0.0248,-0.0191,-0.019,-0.0189,-0.0188,0,0.075,0.0813,0.0898,0.0913,0.0951,0.0998,0.1021,0.102,0.1069,0.1023,0.1031,0.0878,0.0814,0.0587,0.031,0.0272,0.0062,-0.0037,-0.0228,-0.0233,-0.0253,-0.026,-0.0187,-0.0187,-0.0187,-0.0186,-0.0186,0,0.0649,0.0689,0.0779,0.0833,0.0847,0.0879,0.0929,0.0945,0.091,0.0878,0.0807,0.0691,0.0597,0.0471,0.0249,0.0278,0.0104,-0.0032,-0.0042,-0.0122,-0.024,-0.0272,-0.0226,-0.0199,-0.0198,-0.0198,-0.0197,0,0.056,0.0633,0.0616,0.0691,0.0728,0.0684,0.0714,0.07,0.0663,0.0653,0.0528,0.048,0.0353,0.031,0.0235,0.0071,0.0009,0.0053,-0.0195,-0.0201,-0.0222,-0.0173,-0.0114,-0.0216,-0.0189,-0.019,-0.0191,0,0.0485,0.0498,0.0507,0.0536,0.0512,0.0522,0.054,0.0539,0.0567,0.0467,0.0482,0.0348,0.0273,0.0212,0.0101,0.004,0.0013,-0.0061,-0.0069,-0.0095,-0.0129,-0.0161,-0.017,-0.0064,-0.0064,-0.0064,-0.0185,0,0.0412,0.0433,0.0449,0.0453,0.0445,0.046,0.0417,0.0409,0.0362,0.0319,0.0266,0.0135,0.0051,0.0,-0.0074,-0.0092,-0.0147,-0.0214,-0.0266,-0.021,-0.0275,-0.0278,-0.0273,-0.0276,-0.0278,-0.028,0,0,0.0341,0.037,0.0323,0.0341,0.0341,0.0264,0.0295,0.0262,0.0188,0.0182,0.0123,-0.0027,-0.0124,-0.0168,-0.016,-0.0224,-0.0281,-0.0233,-0.024,-0.0234,-0.023,-0.0287,-0.0288,-0.0284,-0.0285,-0.0286,-0.0287,0,0.0318,0.0296,0.0321,0.0302,0.0267,0.0231,0.0236,0.0175,0.015,0.0111,0.0017,-0.005,-0.0172,-0.0235,-0.0287,-0.0254,-0.0359,-0.0297,-0.0191,-0.0258,-0.025,-0.0243,-0.0297,-0.0296,-0.0292,-0.0292,-0.0292,0,0.0264,0.0246,0.0248,0.0221,0.0185,0.0186,0.0113,0.0097,0.0101,-0.0037,-0.0065,-0.0158,-0.0269,-0.0317,-0.0349,-0.0379,-0.0425,-0.0422,-0.0412,-0.0384,-0.0456,-0.0446,-0.0437,-0.055,-0.055,-0.0551,0,0,0.0244,0.0252,0.0202,0.021,0.0197,0.013,0.0109,0.0071,0.0009,-0.0021,-0.0105,-0.0195,-0.0268,-0.0312,-0.039,-0.0433,-0.0488,-0.0446,-0.0434,-0.0424,-0.039,-0.0459,-0.045,-0.0551,-0.0551,-0.0551,0,0,0.0225,0.0189,0.0163,0.0172,0.0135,0.0064,0.0056,0.0016,-0.0047,-0.0058,-0.0173,-0.0201,-0.0256,-0.033,-0.0326,-0.0409,-0.0468,-0.0471,-0.0347,-0.0333,-0.0322,-0.0259,-0.0424,0,0,0,0,0,0.0177,0.02,0.0177,0.0171,0.0111,0.0081,0.0068,0.0003,-0.0027,-0.0028,-0.011,-0.0182,-0.035,-0.0349,-0.0374,-0.0368,-0.0561,-0.056,-0.0558,-0.041,-0.0395,-0.0382,0,0,0,0,0,0,0.0174,0.0169,0.0176,0.0112,0.0097,0.008,0.0017,-0.0001,-0.0029,-0.0038,-0.0162,-0.0186,-0.0267,-0.0343,-0.0365,-0.0356,-0.0417,-0.0561,-0.0559,-0.0558,-0.0405,-0.0392,-0.0382,0,0,0,0,0,0.0172,0.0167,0.0097,0.011,0.0097,0.0016,0.0016,0.0001,-0.0026,-0.0146,-0.0169,-0.0072,-0.0264,-0.029,-0.0356,-0.0343,-0.0403,-0.0411,-0.056,-0.0559,-0.0557,-0.0399,0,0,0,0,0,0,0.017,0.014,0.0092,0.0084,0.0103,0.0014,0.0002,0.0003,-0.0135,-0.0156,-0.0062,-0.0068,-0.0262,-0.0283,-0.0302,-0.0332,-0.0391,-0.0399,-0.0404,-0.0559,-0.0558,-0.0557,0,0,0,0,0,0,0.0141,0.0134,0.0088,0.0083,0.0074,0.0013,0.0003,-0.0072,-0.0138,-0.0046,-0.0053,-0.0063,-0.0251,-0.0277,-0.0293,-0.0406,-0.0382,-0.039,-0.0395,-0.0398,-0.0558,-0.0557,0,0,0,0,0,0,0.0136,0.013,0.0084,0.0077,0.0069,-0.0028,-0.0059,-0.0128,-0.01,-0.004,-0.0104,-0.0105,-0.0246,-0.0262,-0.0286,-0.0392,-0.0403,-0.0383,-0.0388,-0.0391,-0.0394,0,0,0,0,0,0,0,0.0132,0.0202,0.0143,0.0073,0.0065,0.0011,0.0009,0.0006,-0.0101,-0.0102,-0.0103,-0.0104,-0.034,-0.0348,-0.0356,-0.0381,0,0,-0.0382,-0.0386,0,0,0,0,0,0,0,0,0.0202,0.0202,0.0143,0.0141,0.014,0.0011,0.0009,0.0007,-0.0101,-0.0102,-0.0103,-0.0104,-0.0342,-0.0349,-0.0356,0,0,0,0,0,0,0,0,0,0,0,0,0,0,0,0.0143,0.0141,0,0.001,0.0009,0.0007,-0.0101,-0.0102,-0.0103,-0.0104,-0.0344,-0.035,-0.0355,0,0,0,0,0,0,0,0,0,0,0,0,0,0,0,0,0,0,0,0,0,0,0,0,0,0,0,0,0,0,0,0,0,0,0,0,0,0,0,0,0,0,0,0,0,0,0,0,0,0,0,0,0,0,0,0,0,0,0,0,0,0,0,0,0,0,0,0,0]}]],[[{"header":{"parameterUnit":"kt","parameterCategory":2,"dx":1,"dy":1,"la1":30.253999710083008,"la2":30.299108505249023,"lo1":-89.0895004272461,"lo2":-89.04439544677734,"nx":28,"ny":28,"refTime":"2022-09-28T21:00:00:Z","depth":"4","parameterNumber":2,"parameterNumberName":"U-component_of_CURRENTS"},"data":[0.2739,0.2835,0.286,0.2832,0.2861,0.298,0.3106,0.3294,0.3263,0.355,0.3604,0.3818,0.3945,0.4145,0.4071,0.4112,0.4037,0.4513,0.4502,0.455,0.4578,0.4604,0.4416,0,0,0,0,0,0.2814,0.2833,0.2941,0.3045,0.3194,0.3287,0.35,0.3631,0.3893,0.3817,0.3977,0.407,0.4126,0.4273,0.4151,0.4509,0.4563,0.4349,0.437,0.4568,0.4599,0.4406,0,0,0,0,0,0,0.2922,0.2965,0.3133,0.3258,0.3426,0.3473,0.3606,0.3701,0.3824,0.4158,0.4179,0.4425,0.4663,0.4615,0.4657,0.4617,0.4527,0.4337,0.4379,0.4411,0.4219,0.4076,0.3881,0,0,0,0,0,0.2993,0.3135,0.3248,0.3421,0.3574,0.3702,0.3895,0.3936,0.4215,0.4472,0.4529,0.4588,0.4712,0.4775,0.481,0.4794,0.4996,0.4904,0.4918,0.4766,0.4702,0.4662,0.4665,0.4719,0.4723,0.4726,0.4727,0,0.3116,0.318,0.3453,0.3541,0.3672,0.3868,0.3983,0.4247,0.4348,0.4677,0.4712,0.4951,0.5066,0.497,0.5116,0.5111,0.5038,0.4989,0.4827,0.4752,0.4705,0.47,0.4694,0.4753,0.4751,0.4749,0.4747,0,0.3179,0.3329,0.3462,0.3698,0.3784,0.3898,0.417,0.4272,0.452,0.4686,0.4774,0.501,0.5134,0.5234,0.5338,0.5176,0.5152,0.5075,0.5327,0.5292,0.4749,0.4732,0.4795,0.4785,0.4778,0.4771,0.4765,0,0.3302,0.3397,0.3619,0.3674,0.3819,0.3978,0.4161,0.4307,0.4525,0.4639,0.4837,0.4935,0.5091,0.5186,0.5195,0.5119,0.5307,0.4949,0.4905,0.511,0.5093,0.5072,0.5049,0.526,0.5258,0.5257,0.5257,0,0.3349,0.3523,0.3633,0.3691,0.3879,0.3993,0.4115,0.4311,0.4423,0.4658,0.4761,0.4912,0.5015,0.5078,0.512,0.5082,0.5239,0.5164,0.4908,0.4888,0.5057,0.5036,0.5255,0.5255,0.5255,0.5255,0.5254,0,0.3436,0.3519,0.3648,0.3806,0.385,0.395,0.4146,0.4256,0.4443,0.4545,0.4682,0.4746,0.4879,0.4834,0.4972,0.493,0.4947,0.495,0.4954,0.4643,0.4524,0.4748,0.4948,0.4945,0.4942,0.494,0.4938,0,0.3436,0.3548,0.363,0.3756,0.3815,0.3937,0.4045,0.4166,0.4287,0.4419,0.4489,0.4605,0.4587,0.4657,0.4713,0.4747,0.481,0.4718,0.4783,0.4785,0.4495,0.4611,0.4764,0.4902,0.4906,0.4909,0.4912,0,0.3406,0.3558,0.3584,0.3644,0.3782,0.3827,0.3965,0.4077,0.4177,0.4286,0.4407,0.4485,0.4529,0.4545,0.4548,0.4603,0.4749,0.4586,0.4586,0.4623,0.49,0.4604,0.4597,0.4744,0.4748,0.4751,0.4887,0,0.3431,0.3513,0.3557,0.3648,0.3716,0.3796,0.3874,0.3972,0.4061,0.4109,0.4251,0.4273,0.4346,0.4365,0.4349,0.4477,0.4467,0.4418,0.4347,0.4473,0.4513,0.4534,0.4255,0.4253,0.4251,0.4249,0,0,0.3386,0.3445,0.3497,0.3556,0.3616,0.3684,0.3749,0.381,0.3907,0.3965,0.3985,0.4108,0.4116,0.4192,0.4247,0.4239,0.4274,0.4244,0.4406,0.4424,0.444,0.4486,0.4507,0.4245,0.4244,0.4244,0.4243,0,0.3355,0.3422,0.3472,0.3522,0.3614,0.3637,0.3684,0.3754,0.382,0.3916,0.3921,0.3994,0.4054,0.4065,0.4074,0.4201,0.4186,0.4231,0.4329,0.4386,0.4406,0.4424,0.4473,0.4494,0.4238,0.4238,0.4238,0,0.3314,0.3354,0.3387,0.3456,0.3504,0.3555,0.3562,0.3653,0.3716,0.369,0.3815,0.3837,0.3839,0.3918,0.3964,0.3925,0.4098,0.403,0.4042,0.4055,0.4109,0.4133,0.4154,0.3875,0.3874,0.3873,0,0,0.3294,0.3349,0.3388,0.3448,0.3481,0.3529,0.3571,0.361,0.3657,0.3694,0.373,0.3772,0.3805,0.3841,0.3864,0.3931,0.3932,0.3988,0.4005,0.402,0.4039,0.4097,0.4121,0.3869,0.3869,0.3869,0,0,0.3274,0.3325,0.3352,0.3411,0.3463,0.3483,0.3545,0.3577,0.3645,0.3682,0.3671,0.368,0.3784,0.3768,0.3719,0.3855,0.3782,0.3792,0.3867,0.3888,0.3905,0.3922,0.3662,0,0,0,0,0,0.3269,0.3312,0.3335,0.3351,0.3417,0.3465,0.3475,0.353,0.3568,0.3615,0.3657,0.3634,0.3743,0.3699,0.3702,0.3778,0.382,0.3829,0.3837,0.395,0.3972,0.3991,0,0,0,0,0,0,0.3275,0.3289,0.3335,0.3352,0.3369,0.3461,0.3458,0.3471,0.3565,0.3575,0.3625,0.3631,0.3607,0.3695,0.3699,0.3772,0.366,0.3823,0.3831,0.3838,0.3957,0.3976,0.3991,0,0,0,0,0,0.328,0.3292,0.3391,0.3352,0.3366,0.3441,0.3459,0.3471,0.3557,0.355,0.3562,0.3612,0.3605,0.3613,0.3697,0.3772,0.3657,0.3659,0.3828,0.3834,0.3839,0.3966,0,0,0,0,0,0,0.3283,0.3287,0.3395,0.3401,0.3371,0.344,0.3453,0.347,0.3528,0.3541,0.3527,0.3532,0.3602,0.3609,0.3615,0.3775,0.3655,0.3657,0.3658,0.3833,0.3837,0.3841,0,0,0,0,0,0,0.3281,0.3291,0.3397,0.3419,0.3428,0.3439,0.3451,0.346,0.3528,0.35,0.3508,0.3529,0.3604,0.3606,0.3611,0.3621,0.3653,0.3655,0.3656,0.3657,0.3836,0.384,0,0,0,0,0,0,0.3286,0.3295,0.3417,0.3423,0.3431,0.3501,0.3447,0.3516,0.3544,0.3495,0.355,0.3553,0.36,0.3606,0.3608,0.3616,0.362,0.3653,0.3654,0.3655,0.3656,0,0,0,0,0,0,0,0.329,0.3223,0.3366,0.3427,0.3434,0.3462,0.3463,0.3464,0.3545,0.3547,0.3549,0.3552,0.3645,0.3647,0.3648,0.3611,0,0,0.3653,0.3654,0,0,0,0,0,0,0,0,0.3221,0.3223,0.3367,0.3369,0.337,0.3462,0.3463,0.3463,0.3545,0.3547,0.3549,0.3551,0.3646,0.3647,0.3648,0,0,0,0,0,0,0,0,0,0,0,0,0,0,0,0.3367,0.3368,0,0.3462,0.3463,0.3463,0.3545,0.3547,0.3549,0.355,0.3646,0.3647,0.3648,0,0,0,0,0,0,0,0,0,0,0,0,0,0,0,0,0,0,0,0,0,0,0,0,0,0,0,0,0,0,0,0,0,0,0,0,0,0,0,0,0,0,0,0,0,0,0,0,0,0,0,0,0,0,0,0,0,0,0,0,0,0,0,0,0,0,0,0,0]}],[{"header":{"parameterUnit":"kt","parameterCategory":2,"dx":1,"dy":1,"la1":30.253999710083008,"la2":30.299108505249023,"lo1":-89.0895004272461,"lo2":-89.04439544677734,"nx":28,"ny":28,"refTime":"2022-09-28T21:00:00:Z","depth":"4","parameterNumber":3,"parameterNumberName":"V-component_of_CURRENTS"},"data":[0.105,0.1164,0.1215,0.14,0.1505,0.1678,0.178,0.1822,0.1819,0.1829,0.1608,0.1499,0.1072,0.1335,0.0637,0.0542,0.0373,-0.0047,-0.0055,-0.0278,-0.0272,-0.0267,-0.0175,0,0,0,0,0,0.1026,0.1093,0.122,0.1365,0.1515,0.1608,0.1761,0.181,0.1872,0.1857,0.1829,0.1604,0.1151,0.0966,0.0649,0.0542,0.0124,0.0155,-0.0029,-0.0275,-0.0268,-0.0181,0,0,0,0,0,0,0.0992,0.1051,0.1164,0.1296,0.1449,0.1584,0.1649,0.1732,0.1801,0.1808,0.179,0.1524,0.1376,0.0913,0.0609,0.0296,0.0198,0.0074,0.0062,0.0064,0.0183,0.0272,0.0221,0,0,0,0,0,0.0944,0.0998,0.1073,0.1227,0.1346,0.1474,0.1602,0.1668,0.1726,0.1734,0.169,0.1456,0.1217,0.0857,0.0522,0.0209,-0.0027,-0.0135,-0.0134,-0.0148,-0.0113,-0.015,-0.0137,-0.0242,-0.0241,-0.0241,-0.024,0,0.0889,0.0944,0.1073,0.1148,0.1197,0.1315,0.1404,0.1457,0.153,0.1542,0.1576,0.1408,0.1278,0.0842,0.0533,0.0101,0.003,-0.0116,-0.0129,-0.0101,-0.0142,-0.0131,-0.012,-0.0235,-0.0235,-0.0236,-0.0236,0,0.0862,0.0897,0.099,0.107,0.1112,0.119,0.1306,0.137,0.1377,0.1441,0.1439,0.1307,0.11,0.0824,0.0518,0.0319,0.0067,-0.0033,0.0107,0.0062,-0.0115,-0.0106,-0.0226,-0.0228,-0.023,-0.0231,-0.0232,0,0.0815,0.0874,0.0932,0.0972,0.1077,0.1078,0.1183,0.1189,0.1213,0.1266,0.1143,0.1139,0.0884,0.0726,0.0507,0.0253,0.0262,0.0051,-0.0004,0.0099,0.0106,0.0039,0.004,0.0043,0.0045,0.0046,0.0047,0,0.0759,0.0816,0.0888,0.0903,0.0947,0.0994,0.1024,0.1027,0.1069,0.1037,0.1045,0.092,0.0877,0.0687,0.0472,0.0461,0.0243,0.0197,0.0038,0.0034,0.0046,0.0045,0.0048,0.0048,0.0049,0.0049,0.0049,0,0.0699,0.0732,0.0805,0.0859,0.0872,0.0906,0.0953,0.097,0.0945,0.0926,0.0875,0.08,0.0727,0.0648,0.0455,0.0497,0.0359,0.0254,0.0245,0.0177,0.0114,0.0093,0.0115,0.0117,0.0118,0.0119,0.012,0,0.0645,0.07,0.0695,0.0757,0.0786,0.0764,0.0792,0.0785,0.0765,0.076,0.0678,0.0661,0.0579,0.0567,0.0499,0.0386,0.032,0.0383,0.0159,0.0153,0.0137,0.015,0.0293,0.0138,0.0136,0.0134,0.0133,0,0.0595,0.0615,0.0623,0.065,0.0639,0.0649,0.0667,0.067,0.0693,0.0629,0.0641,0.0574,0.0526,0.0494,0.0436,0.0382,0.0339,0.0317,0.0311,0.0264,0.0195,0.0172,0.0159,0.0297,0.0296,0.0296,0.0145,0,0.055,0.0572,0.0584,0.0591,0.059,0.0603,0.0577,0.0576,0.0553,0.0523,0.0501,0.0429,0.0385,0.0363,0.0327,0.0311,0.0267,0.0231,0.019,0.0223,0.0151,0.0142,0.0217,0.0215,0.0213,0.0211,0,0,0.0503,0.0527,0.0499,0.0512,0.0516,0.0467,0.049,0.0471,0.0429,0.0428,0.0396,0.0318,0.0271,0.0257,0.0269,0.0237,0.0183,0.023,0.0211,0.0212,0.0211,0.0145,0.0138,0.0208,0.0208,0.0207,0.0206,0,0.0484,0.0477,0.0497,0.0485,0.0465,0.0442,0.0446,0.0407,0.0396,0.0382,0.0331,0.03,0.0241,0.0209,0.0184,0.0215,0.0134,0.0196,0.026,0.0198,0.0201,0.0203,0.0139,0.0134,0.0202,0.0202,0.0203,0,0.0446,0.0436,0.0441,0.0425,0.0404,0.0406,0.0359,0.0351,0.0357,0.0278,0.0273,0.0225,0.0165,0.0151,0.0139,0.0118,0.0085,0.0105,0.0113,0.0116,0.0048,0.0052,0.0055,0.0008,0.0008,0.0008,0,0,0.043,0.0441,0.0407,0.0416,0.0409,0.0367,0.0354,0.0332,0.0299,0.0286,0.0241,0.0196,0.0162,0.0144,0.0102,0.0089,0.0032,0.0087,0.0096,0.0104,0.0111,0.0046,0.005,0.0007,0.0007,0.0007,0,0,0.0416,0.0393,0.038,0.039,0.0366,0.0318,0.0318,0.0293,0.0265,0.0263,0.02,0.0186,0.0169,0.0124,0.0125,0.0092,0.0048,0.0046,0.0137,0.0147,0.0156,0.0178,0.0065,0,0,0,0,0,0.038,0.0398,0.0387,0.0383,0.0348,0.0327,0.0319,0.0282,0.0267,0.0271,0.0232,0.019,0.0112,0.0112,0.0098,0.0113,0.0,0.0001,0.0003,0.0114,0.0126,0.0136,0,0,0,0,0,0,0.0379,0.0376,0.0386,0.0342,0.0333,0.0326,0.0289,0.0279,0.0266,0.0262,0.02,0.0188,0.0143,0.0114,0.0103,0.0118,0.0069,0.0001,0.0002,0.0003,0.0118,0.0128,0.0136,0,0,0,0,0,0.0377,0.0375,0.0335,0.034,0.0333,0.0286,0.0289,0.028,0.027,0.0203,0.0192,0.0246,0.0144,0.0131,0.0107,0.0125,0.0076,0.0072,0.0001,0.0002,0.0003,0.0123,0,0,0,0,0,0,0.0376,0.0358,0.0331,0.0327,0.034,0.0286,0.0279,0.0282,0.0211,0.0201,0.0246,0.0243,0.0145,0.0135,0.0125,0.0131,0.0082,0.0078,0.0076,0.0002,0.0003,0.0003,0,0,0,0,0,0,0.0359,0.0355,0.0329,0.033,0.0325,0.0286,0.028,0.024,0.021,0.0257,0.0253,0.0245,0.0154,0.0137,0.013,0.0069,0.0087,0.0083,0.008,0.0079,0.0003,0.0003,0,0,0,0,0,0,0.0356,0.0352,0.0331,0.0327,0.0323,0.0263,0.0248,0.0211,0.0225,0.026,0.0224,0.0223,0.0156,0.0148,0.0133,0.0076,0.0071,0.0087,0.0084,0.0082,0.0081,0,0,0,0,0,0,0,0.0354,0.0396,0.0363,0.0325,0.0321,0.0281,0.0279,0.0278,0.0224,0.0224,0.0224,0.0223,0.0109,0.0104,0.01,0.0082,0,0,0.0087,0.0085,0,0,0,0,0,0,0,0,0.0396,0.0396,0.0362,0.0361,0.036,0.028,0.0279,0.0278,0.0224,0.0224,0.0224,0.0223,0.0107,0.0104,0.0101,0,0,0,0,0,0,0,0,0,0,0,0,0,0,0,0.0362,0.0361,0,0.028,0.0279,0.0278,0.0224,0.0224,0.0224,0.0224,0.0107,0.0104,0.0101,0,0,0,0,0,0,0,0,0,0,0,0,0,0,0,0,0,0,0,0,0,0,0,0,0,0,0,0,0,0,0,0,0,0,0,0,0,0,0,0,0,0,0,0,0,0,0,0,0,0,0,0,0,0,0,0,0,0,0,0,0,0,0,0,0,0,0,0,0]}]]]